User: anonymous   Login
Location: Nag� el Ma?a??a
(24.0667°N, 32.8833°E)
Time: 02:51:24
(UTC+00:00)
Language:

Cosmos 1709 Rocket - Orbit

View from above orbital plane
View from above orbital plane
View from above satellite
View from above satellite

Ground track
Ground track

The orbit data is extracted from the following two-line orbital elements,

1 16369U 85116B   22274.75782459  .00000083  00000-0  68144-4 0  9998
2 16369  82.9411 350.9609 0037128 148.8966 328.0697 13.76912241847614
Epoch (UTC): 01 October 2022 18:11:16
Eccentricity: 0.0037128
inclination: 82.9411°
perigee height: 947 km
apogee height: 1002 km
right ascension of ascending node: 350.9609°
argument of perigee: 148.8966°
revolutions per day: 13.76912241
mean anomaly at epoch: 328.0697°
orbit number at epoch: 84761

The dashed part of the orbit path shows where the satellite is in the earth's shadow,  

DLR